Location: Bremen
(53.0793°N, 8.8017°E)
Time: 12:10:26
(UTC+02:00)

Transit 2A Rocket - Pass Details

Date: 24 June 2024
Orbit: 582 x 910 km, 66.7° (Epoch: 19 July)

Event Time Altitude Azimuth Distance (km) Brightness Sun altitude
Rises 03:32:05 0° 314° (NW) 3,431 8.6 -8.9°
Reaches altitude 10° 03:34:47 10° 324° (NW) 2,532 8.0 -8.7°
Maximum altitude 03:40:07 33° 28° (NNE) 1,475 7.4 -8.3°
Drops below altitude 10° 03:45:34 10° 91° (E) 2,601 8.2 -7.8°
Sets 03:48:22 0° 101° (ESE) 3,538 8.7 -7.6°
